Cancun, Mexico

5:51 AM on October 16, 2018 (GMT +0000)
Cancun International

Weather History for MMUN - June, 2018

Change the Weather History Date:

Thursday, June 14, 2018

  Actual Average Record
Temperature  
Mean Temperature 78 °F -  
Max Temperature 82 °F 88 °F 91 °F (1997)
Min Temperature 73 °F 74 °F 69 °F (2007)
Cooling Degree Days 12    
Growing Degree Days 28 (Base 50)    
Moisture  
Dew Point 76 °F    
Average Humidity 90    
Maximum Humidity 100    
Minimum Humidity 79    
Precipitation  
Precipitation 0.00 in - - ()
Sea Level Pressure  
Sea Level Pressure 30.00 in    
Wind  
Wind Speed 5 mph ()    
Max Wind Speed 13 mph    
Max Gust Speed -    
Visibility 6.0 miles    
Events Rain    
Averages and records for this station are not official NWS values.
T = Trace of Precipitation, MM = Missing Value Source: Averaged Metar Reports

Daily Weather History Graph

Daily Weather History Graph

Search for Another Location

Airport or City:

Astronomy

Jun. 14, 2018 Rise Set
Actual Time 6:05 AM EST 7:29 PM EST
Civil Twilight 5:40 AM EST 7:54 PM EST
Nautical Twilight 5:11 AM EST 8:24 PM EST
Astronomical Twilight 4:40 AM EST 8:54 PM EST
Moon 6:56 AM EST (6/14) 8:35 PM EST (6/14)
Length of Visible Light 14h 13m
Length of Day
13h 24m
New Moon, 1% of the Moon is Illuminated
Jun 14
New Moon
Jun 20
First Quarter
Jun 27
Full
Jul 6
Last Quarter
Jul 12
New

Hourly Weather History & Observations

Time (EST) Temp. Heat Index Dew Point Humidity Pressure Visibility Wind Dir Wind Speed Gust Speed Precip Events Conditions
12:43 AM 77.0 °F - 71.6 °F 83% 30.02 in 6.0 mi ESE 2.3 mph - N/A   Overcast
1:44 AM 77.0 °F - 73.4 °F 89% 29.99 in 7.0 mi ESE 3.5 mph - N/A   Overcast
2:45 AM 78.8 °F - 75.2 °F 89% 29.98 in 6.0 mi ESE 5.8 mph - N/A   Overcast
3:40 AM 78.8 °F - 75.2 °F 89% 29.98 in 6.0 mi East 5.8 mph - N/A   Overcast
4:45 AM 77.0 °F - 73.4 °F 89% 29.97 in 4.0 mi East 5.8 mph - N/A Rain Light Rain
5:46 AM 73.4 °F - 73.4 °F 100% 29.98 in 6.0 mi East 3.5 mph - N/A   Overcast
6:44 AM 77.0 °F - 75.2 °F 94% 30.00 in 7.0 mi ESE 5.8 mph - N/A   Overcast
7:45 AM 77.0 °F - 75.2 °F 94% 29.99 in 7.0 mi ESE 4.6 mph - N/A   Overcast
8:45 AM 75.2 °F - 75.2 °F 100% 30.02 in 6.0 mi SE 4.6 mph - N/A   Overcast
9:47 AM 78.8 °F - 75.2 °F 89% 30.04 in 6.0 mi ESE 8.1 mph - N/A   Overcast
10:48 AM 78.8 °F - 73.4 °F 83% 30.05 in 6.0 mi ENE 11.5 mph - N/A   Overcast
11:49 AM 80.6 °F 88.1 °F 78.8 °F 94% 30.04 in 6.0 mi ESE 8.1 mph - N/A   Overcast
12:48 PM 82.4 °F 89.5 °F 75.2 °F 79% 30.02 in 6.0 mi ESE 8.1 mph - N/A   Mostly Cloudy
1:42 PM 82.4 °F 89.5 °F 75.2 °F 79% 30.02 in 6.0 mi East 10.4 mph - N/A   Overcast
2:45 PM 80.6 °F 87.1 °F 77.0 °F 89% 30.00 in 6.0 mi ESE 12.7 mph - N/A   Overcast
3:49 PM 78.8 °F - 77.0 °F 94% 29.99 in 6.0 mi East 6.9 mph - N/A   Overcast
4:48 PM 78.8 °F - 77.0 °F 94% 29.97 in 6.0 mi East 3.5 mph - N/A   Overcast
5:44 PM 80.6 °F 87.1 °F 77.0 °F 89% 29.96 in 6.0 mi ESE 5.8 mph - N/A   Overcast
6:51 PM 80.6 °F 87.1 °F 77.0 °F 89% 29.99 in 6.0 mi East 4.6 mph - N/A   Overcast
7:47 PM 80.6 °F 87.1 °F 77.0 °F 89% 29.96 in 6.0 mi East 8.1 mph - N/A   Overcast
8:44 PM 80.6 °F 87.1 °F 77.0 °F 89% 29.98 in 6.0 mi East 6.9 mph - N/A   Overcast
9:50 PM 80.6 °F 87.1 °F 77.0 °F 89% 30.00 in 6.0 mi ESE 10.4 mph - N/A   Overcast
10:46 PM 80.6 °F 87.1 °F 77.0 °F 89% 30.00 in 6.0 mi East 9.2 mph - N/A   Overcast
11:42 PM 80.6 °F 87.1 °F 77.0 °F 89% 30.01 in 6.0 mi East 8.1 mph - N/A   Overcast